Location: Stuttgart
(48.7818°N, 9.1811°E)
Time: 01:32:17
(UTC+01:00)

ISS - Visible Passes

Search period start: 08 December 2021 00:00
Search period end: 18 December 2021 00:00
Orbit: 417 x 422 km, 51.6° (Epoch: 07 December)

Date Brightness Start Highest point End Pass type
(mag) Time Alt. Az. Time Alt. Az. Time Alt. Az.
08 Dec -0.8 18:04:22 10° W 18:06:42 17° SW 18:09:01 10° S visible
09 Dec -1.3 17:16:36 10° W 17:19:28 26° SW 17:22:19 10° SSE visible
11 Dec -0.1 17:19:57 10° WSW 17:21:04 11° SW 17:22:12 10° SSW visible
